GEFSNGP_con_prob3kmehi_264.txt.gz
EHI
0 0 0 0 0 0 0 0 0 1 6 13 19 26 34 38 39 41 43 48 58 65 64 60 55 52 50 49 52 55 56 56 55 53 48 42 39 37 35 34 33 31 27 24
0 0 0 0 0 0 0 1 1 4 9 16 22 29 36 40 40 42 45 48 55 61 61 59 55 51 49 50 51 54 55 54 51 49 44 38 36 35 34 33 32 31 27 23
0 0 0 0 0 0 1 2 4 7 12 18 24 32 39 42 44 46 48 50 54 58 58 57 54 52 52 53 52 52 52 49 44 40 36 32 31 32 33 32 32 31 27 23
0 0 0 0 0 0 2 4 7 11 15 20 26 33 39 44 48 52 53 53 55 56 56 54 53 54 56 54 51 48 47 45 40 35 32 30 29 30 29 29 30 29 26 24
0 0 0 0 1 1 3 6 10 15 18 22 28 32 36 44 51 57 58 57 56 54 53 52 52 53 54 52 49 46 45 43 39 34 32 30 28 27 26 26 26 25 24 23
0 0 0 1 1 2 5 8 13 17 20 24 31 35 39 46 54 61 62 59 57 54 51 50 51 51 51 50 48 46 43 40 36 33 30 28 25 24 24 23 21 20 20 22
0 0 2 4 5 6 10 15 17 19 22 29 38 46 51 56 62 65 64 60 57 54 50 49 49 48 47 46 45 44 41 37 33 29 26 24 22 20 20 19 17 15 16 19
2 4 9 13 15 17 21 23 22 23 29 37 45 53 59 63 65 65 62 57 54 52 49 46 44 44 42 40 39 39 38 35 30 24 21 21 19 16 15 15 15 14 15 17
10 12 17 21 24 27 28 27 25 25 32 38 44 51 57 60 62 61 58 53 49 48 46 42 39 39 38 36 34 34 34 31 26 19 16 17 17 14 12 12 12 12 14 16
19 19 19 21 24 27 27 27 25 24 27 33 40 47 53 57 58 55 51 46 45 45 44 40 37 36 35 32 29 28 28 26 21 17 16 17 15 12 10 9 7 8 11 13
22 20 18 18 21 22 23 24 23 23 23 29 39 46 50 54 55 50 44 40 40 42 41 36 33 32 29 25 24 25 25 22 18 17 18 18 15 10 7 5 4 6 7 8
22 21 21 22 22 21 21 21 22 24 26 32 39 44 47 50 50 46 40 36 34 34 32 29 26 26 23 19 19 21 22 20 17 17 19 19 15 10 5 3 3 3 4 4
22 23 24 25 24 23 21 21 24 28 32 37 40 41 43 44 43 40 37 32 30 27 25 22 21 21 19 16 15 17 18 18 16 16 16 16 15 11 4 2 1 2 1 1
21 21 21 23 24 24 23 23 26 31 36 38 39 38 39 37 33 31 30 27 26 25 22 20 18 18 16 14 13 14 15 16 16 14 11 10 11 9 5 3 3 2 1 0
17 16 16 19 21 22 22 23 25 29 33 35 34 33 32 28 24 22 23 21 20 19 19 18 17 15 13 12 13 15 15 14 14 13 9 6 5 5 5 5 6 4 2 0
11 12 14 18 21 20 18 18 20 23 28 30 29 26 23 19 16 16 17 16 14 13 14 16 16 14 12 11 13 14 14 12 11 9 7 5 4 4 5 6 6 5 3 1
7 8 13 18 20 18 14 13 16 20 23 24 23 19 15 11 11 12 12 12 11 10 11 13 14 13 10 10 10 10 11 10 7 5 4 4 5 6 7 7 6 5 4 1
6 7 10 14 16 15 11 11 15 18 19 18 17 14 9 7 8 9 8 8 8 8 8 10 10 9 8 8 7 7 7 7 6 3 2 3 5 7 8 8 7 6 5 3
6 7 8 10 11 10 10 11 14 15 15 14 12 9 7 6 6 5 5 5 4 6 8 8 6 6 6 5 5 5 6 6 6 4 2 2 3 5 6 7 7 8 7 5
4 5 7 7 8 8 9 11 12 11 10 10 9 7 5 4 3 3 2 3 3 5 6 5 4 4 4 3 2 3 5 5 5 4 3 3 3 3 4 5 6 8 8 7
3 4 6 7 7 6 7 9 9 6 5 6 6 6 4 2 1 1 1 1 2 3 3 3 3 2 2 1 0 1 3 4 5 5 5 5 4 3 3 3 4 6 7 7
3 4 6 7 5 5 5 6 6 4 4 5 5 4 3 1 0 0 0 0 1 1 1 2 2 1 0 0 0 0 2 4 5 5 6 5 5 4 3 3 4 4 5 5
1 2 4 5 5 4 4 5 4 4 4 5 5 4 3 1 0 0 0 0 0 0 0 1 1 1 0 0 0 0 1 2 3 4 4 4 3 3 3 3 4 4 3 2
0 1 2 3 4 5 5 4 4 3 4 5 5 4 3 2 1 0 0 0 0 0 0 0 0 0 0 0 1 0 0 1 2 3 3 2 1 1 1 2 3 4 3 2
0 0 1 2 3 4 4 3 3 3 3 4 3 2 2 2 1 1 1 0 0 0 0 0 0 0 0 0 0 0 1 1 2 3 3 1 0 0 1 1 2 2 3 4
0 0 0 1 2 3 3 3 3 3 3 3 3 1 1 2 3 2 2 1 0 0 0 0 0 0 0 1 1 1 2 3 3 4 3 1 0 1 2 3 2 3 3 3
0 0 0 0 1 3 3 3 3 3 3 3 3 2 2 3 3 3 2 1 0 0 0 0 0 0 1 2 2 1 2 4 4 4 3 1 0 1 3 4 5 4 2 1

GEFSNGP_con_prob3kmehi_270.txt.gz
EHI
0 0 0 0 0 1 1 1 2 4 8 10 14 19 21 20 23 30 36 43 47 46 43 39 35 34 36 38 39 39 36 31 24 21 22 23 23 22 21 20 17 12 9 10
0 0 0 0 0 2 3 4 5 7 9 11 15 19 21 23 26 31 36 42 46 46 44 40 37 37 38 37 35 33 30 27 22 19 20 21 20 19 18 16 13 9 8 9
0 0 1 0 0 2 5 7 7 9 10 12 17 21 23 26 31 34 36 41 45 45 44 41 39 40 39 34 30 27 25 24 21 19 18 18 17 16 15 13 9 6 6 6
0 0 0 0 1 3 7 8 9 10 12 16 20 24 26 29 33 36 37 41 43 43 43 42 41 40 38 33 29 26 24 22 20 19 17 16 15 14 12 10 6 3 3 3
0 0 0 0 1 4 7 9 10 13 16 20 22 24 25 27 31 36 39 41 43 43 43 42 41 38 35 33 31 29 26 22 19 18 17 16 13 11 9 7 3 1 1 1
0 0 0 1 3 5 7 8 9 13 18 21 21 20 20 24 30 37 40 41 43 43 41 41 38 33 31 31 31 31 28 24 20 19 17 15 12 9 7 5 1 0 0 1
0 0 0 1 4 5 6 6 6 10 17 20 19 19 20 24 32 38 41 41 41 39 38 37 34 30 29 29 30 30 27 23 19 18 15 13 11 8 5 3 1 0 0 1
1 1 2 4 5 5 5 7 8 11 16 20 22 24 25 28 32 35 36 36 35 34 33 31 28 26 26 27 27 25 22 19 17 15 14 11 9 8 5 2 0 0 0 0
3 4 6 8 8 8 8 10 13 16 20 24 27 29 30 30 30 29 30 30 29 29 28 25 22 21 22 22 21 19 17 16 15 14 12 9 8 7 5 3 1 1 0 0
6 8 12 12 11 11 12 14 18 22 28 30 31 31 31 30 28 27 27 26 25 25 22 19 17 17 17 17 15 12 11 12 13 13 11 9 7 6 6 4 3 2 1 1
8 10 12 12 12 12 14 18 22 27 32 33 32 31 31 31 28 25 24 22 22 21 17 14 14 15 14 12 10 8 7 8 10 10 10 9 7 6 5 4 3 2 2 2
8 8 9 9 11 13 15 19 24 27 30 31 31 30 30 29 25 22 19 18 18 17 14 11 12 12 10 8 6 6 6 6 7 7 7 7 7 6 4 2 1 1 1 1
8 8 7 7 9 12 15 18 22 24 26 27 27 27 27 25 21 18 16 14 13 13 11 9 9 9 7 4 3 3 4 4 5 5 5 7 7 6 2 0 0 0 0 0
7 8 7 6 8 10 12 15 19 20 21 21 21 22 22 21 18 15 14 11 9 9 7 5 5 5 3 1 1 1 2 4 5 5 5 7 8 6 3 1 1 0 0 0
5 6 6 6 8 9 10 12 14 16 16 15 14 15 15 15 14 13 11 9 7 6 5 4 3 3 1 1 1 1 1 4 6 6 6 7 7 7 5 3 2 1 1 0
4 6 6 7 8 9 9 9 11 12 13 11 9 9 10 11 11 10 9 7 4 3 4 4 3 1 1 1 1 1 1 2 4 5 5 5 5 5 4 3 2 2 1 1
5 6 8 8 8 8 8 9 10 12 11 9 8 7 7 7 7 7 6 5 3 2 3 3 1 0 0 0 0 0 0 0 1 1 2 3 2 2 1 1 1 1 1 0
4 5 7 7 7 6 7 9 11 11 10 8 7 6 4 3 3 3 3 3 3 3 3 3 1 0 0 0 0 0 0 0 0 0 1 2 1 1 0 0 0 0 0 0
2 3 5 6 6 7 8 9 10 9 7 6 5 3 1 0 0 0 1 2 2 2 2 2 2 1 0 0 0 0 0 0 0 0 2 3 3 2 1 0 0 0 0 0
1 1 3 4 4 6 8 9 9 7 5 4 3 1 0 0 0 0 0 1 1 1 1 1 1 2 1 0 0 0 0 0 0 0 1 2 3 3 2 1 0 0 0 0
0 0 1 1 2 3 5 6 7 6 4 2 1 0 0 0 0 0 0 0 0 0 0 0 1 2 1 0 0 0 0 0 0 0 0 1 2 3 2 1 0 0 0 0
0 0 0 0 0 1 3 4 5 6 5 2 0 0 0 0 0 0 0 0 0 0 0 0 0 1 1 0 0 0 0 0 0 0 0 0 1 1 2 1 0 0 0 0
0 0 0 1 0 1 2 3 4 4 4 1 0 0 0 0 0 0 0 0 0 0 0 0 0 0 0 0 0 0 0 0 1 0 0 0 0 0 1 1 0 0 0 0
0 0 0 0 0 1 2 2 2 2 1 0 0 0 0 0 0 0 0 0 0 0 0 0 0 0 0 0 0 0 0 0 0 0 0 0 0 0 0 0 1 1 0 0
0 0 0 0 0 0 1 1 1 0 0 0 0 0 0 0 0 0 0 0 0 0 0 0 0 0 0 0 0 0 0 0 0 0 0 0 0 0 0 1 2 2 1 0
0 0 0 0 0 0 0 0 0 0 0 0 0 0 0 0 0 0 0 0 0 0 0 0 0 0 0 0 0 0 0 0 0 0 0 0 0 0 0 2 3 3 1 0
0 0 0 0 0 0 0 0 0 0 0 0 0 0 0 0 0 0 0 0 0 0 0 0 0 0 0 0 0 0 0 0 0 0 0 0 0 0 0 1 3 3 2 1

GEFSNGP_con_prob3kmehi_276.txt.gz
EHI
0 0 0 1 1 0 0 0 0 1 3 3 3 4 8 15 18 18 17 19 22 22 21 20 21 23 24 23 19 18 18 18 18 18 17 16 13 11 9 8 8 8 8 8
0 0 0 1 1 1 1 1 1 2 3 4 3 3 7 13 17 18 18 20 23 25 25 23 23 23 22 20 16 15 15 16 18 19 18 16 13 10 9 8 7 6 6 6
0 0 0 1 1 1 2 3 3 3 4 4 3 3 5 10 14 16 17 19 23 26 27 24 22 20 17 13 12 14 15 16 18 18 18 15 12 10 9 7 6 4 2 2
0 0 0 0 0 1 3 4 3 3 3 3 3 3 5 8 11 14 16 18 20 24 25 21 16 14 11 8 10 14 17 17 17 17 17 14 11 9 7 6 4 2 1 0
0 0 0 0 0 2 3 3 3 3 3 3 4 5 7 10 13 15 16 17 19 21 20 16 12 11 9 8 9 12 14 14 15 16 15 12 9 7 5 4 3 1 0 0
0 0 0 1 1 1 2 1 2 2 3 4 6 6 8 11 14 16 16 17 19 18 16 13 11 9 8 7 8 10 10 11 12 13 12 10 7 6 6 5 3 1 0 0
0 0 1 3 2 1 0 1 2 3 3 5 8 9 9 11 13 13 14 15 17 16 15 12 10 8 6 5 6 7 8 9 10 11 10 8 6 6 6 5 3 1 0 0
0 1 3 4 4 2 1 1 3 4 5 7 10 11 11 11 11 11 11 12 14 16 14 11 9 8 5 4 4 6 7 8 9 10 9 7 5 4 4 4 2 0 0 0
2 3 4 4 4 3 2 3 3 5 6 9 12 13 12 11 10 10 11 11 13 16 14 11 9 7 5 4 5 6 6 6 6 8 9 7 5 3 3 2 1 0 0 0
5 5 6 6 4 3 4 4 4 5 6 8 10 11 10 10 10 10 11 13 16 18 16 13 9 7 6 6 6 6 5 3 3 5 6 7 6 5 4 3 1 1 1 1
4 5 7 6 4 4 5 5 5 5 6 5 6 7 8 9 9 10 12 15 19 21 18 13 8 6 6 6 6 6 4 1 1 2 3 5 6 6 6 4 2 2 2 2
2 3 4 4 4 4 6 6 5 6 7 6 5 6 8 10 10 11 12 15 18 19 17 11 7 4 4 4 5 5 3 1 0 0 1 2 4 5 4 2 1 1 1 1
2 2 3 3 3 4 5 5 5 6 8 7 7 9 12 13 13 12 13 14 16 16 14 10 6 4 3 3 4 3 2 0 0 0 0 0 1 2 2 1 0 0 0 0
1 2 2 1 1 3 4 3 3 5 6 7 9 12 14 14 13 12 12 13 13 13 11 8 6 4 3 3 2 2 1 0 0 0 0 0 0 1 2 2 1 0 0 0
0 1 1 0 1 3 3 2 1 3 5 7 10 11 12 12 11 10 10 11 12 10 8 7 6 3 2 1 1 1 0 0 0 0 0 0 0 0 2 3 2 1 0 0
0 0 0 1 3 5 5 2 1 1 3 6 8 8 8 9 9 8 8 9 10 8 7 6 5 3 1 1 1 1 1 1 1 1 0 0 0 1 2 3 2 1 0 0
0 0 1 3 5 6 6 4 2 0 2 5 6 6 7 7 7 7 7 7 7 6 5 4 4 3 2 2 2 2 2 2 2 1 0 0 0 1 2 3 2 1 0 0
0 0 1 3 5 6 6 5 3 1 2 4 5 6 6 6 6 6 6 5 4 4 3 3 2 2 3 3 3 2 2 2 1 1 0 0 0 0 1 2 2 1 0 0
0 0 1 2 3 4 4 4 3 2 2 3 4 4 4 4 5 5 4 3 2 2 1 1 1 1 1 2 1 1 1 1 0 0 0 0 0 0 0 1 1 1 0 0
0 1 1 1 1 2 1 1 1 1 2 3 3 3 3 3 3 3 2 1 1 1 0 0 0 0 0 0 0 0 0 0 0 0 0 0 0 0 0 0 0 0 0 0
1 2 2 1 0 0 0 0 0 0 1 1 2 2 2 2 2 1 0 0 0 0 0 0 0 0 0 0 0 0 0 0 0 0 0 0 0 0 0 0 0 0 0 0
1 2 3 2 1 0 0 0 0 0 0 0 1 1 1 0 0 0 0 0 0 0 0 0 0 0 0 0 0 0 0 0 0 0 0 0 0 0 0 0 0 0 0 0
0 1 2 2 1 0 0 0 0 0 0 0 0 0 0 0 0 0 0 0 0 0 0 0 0 0 0 0 0 0 0 0 0 0 0 0 0 0 0 0 0 0 0 0
0 0 1 1 1 0 0 0 0 0 0 0 0 0 0 0 0 0 0 0 0 0 0 0 0 0 0 0 0 0 0 0 0 0 0 0 0 0 0 0 0 0 0 0
0 0 0 0 0 0 0 0 0 0 0 0 0 0 0 0 0 0 0 0 0 0 0 0 0 0 0 0 0 0 0 0 0 0 0 0 0 0 0 0 0 0 0 0
0 0 0 0 0 0 0 0 0 0 0 0 0 0 0 0 0 0 0 0 0 0 0 0 0 0 0 0 0 0 0 0 0 0 0 0 0 0 0 0 0 0 0 0
0 0 0 0 0 0 0 0 0 0 0 0 0 0 0 0 0 0 0 0 0 0 0 0 0 0 0 0 0 0 0 0 0 0 0 0 0 0 0 0 0 0 0 0

GEFSNGP_con_prob3kmehi_282.txt.gz
EHI
0 0 0 0 0 0 0 0 0 0 2 4 5 8 14 19 23 25 27 29 29 32 35 35 33 33 32 30 29 27 24 21 20 24 25 24 21 19 19 18 16 15 14 11
0 0 0 0 0 0 0 0 0 1 3 6 8 11 15 19 22 26 29 31 32 34 38 41 40 37 35 33 30 28 26 25 25 25 25 26 25 23 21 19 17 16 14 11
0 0 0 0 0 0 0 0 1 2 5 8 10 11 14 17 19 24 28 30 34 37 41 44 45 42 39 37 33 28 26 25 24 23 23 24 25 26 23 20 17 16 14 12
0 0 0 0 0 0 0 1 2 6 8 8 7 7 10 13 15 18 22 26 30 35 40 43 43 42 40 38 33 27 22 20 21 21 20 20 23 25 24 21 17 14 13 12
0 0 0 0 0 0 0 1 4 7 8 7 4 4 7 11 13 17 22 25 27 32 37 41 41 42 41 38 31 23 19 19 19 20 18 17 19 21 21 20 17 13 12 11
0 0 0 0 0 0 0 1 4 7 7 5 4 5 7 10 14 19 25 28 29 31 34 37 40 41 41 38 30 22 19 20 20 19 19 18 17 16 17 17 15 12 11 10
0 0 0 0 0 1 2 4 8 10 8 7 6 7 9 12 16 20 25 29 31 30 31 32 35 37 37 34 31 25 24 24 22 21 20 18 16 15 16 16 14 12 10 9
1 0 0 1 1 3 6 10 13 15 13 10 8 7 9 12 15 19 23 26 27 27 28 29 30 32 33 31 31 29 29 28 25 23 20 17 15 15 16 16 14 11 9 8
3 1 1 2 3 6 10 14 17 18 15 11 8 7 8 10 13 15 18 22 23 25 27 28 27 29 31 31 30 29 29 29 26 23 20 17 15 15 16 15 13 10 8 7
5 3 2 4 7 9 13 17 20 18 15 11 9 8 7 8 10 12 15 18 21 24 27 27 27 28 30 31 29 26 26 26 24 22 20 17 15 14 14 14 12 10 9 8
6 4 5 8 10 12 15 18 20 19 15 13 11 9 8 8 9 12 14 17 19 23 26 27 29 30 30 29 27 24 23 23 21 20 19 16 13 12 12 12 10 8 7 7
5 5 6 9 10 12 15 17 18 17 15 13 12 11 10 10 11 12 15 17 19 21 22 26 30 31 30 28 25 22 21 20 20 19 19 16 13 11 9 7 5 3 3 2
5 6 7 7 8 10 12 14 16 14 12 11 11 12 12 12 12 13 16 18 19 18 19 22 27 29 28 26 24 22 21 20 19 18 15 13 12 11 9 6 3 1 0 0
6 7 7 6 5 7 8 11 13 13 10 9 9 10 12 14 14 14 16 18 18 17 17 19 22 23 23 23 22 22 21 20 18 14 11 9 9 10 10 7 5 4 2 1
5 5 5 4 4 5 7 9 12 13 11 10 10 10 11 13 15 15 16 17 17 16 16 17 19 20 20 20 20 20 19 18 14 11 7 6 6 7 6 6 6 6 4 2
5 4 4 4 5 6 7 9 11 11 12 12 12 11 10 12 15 16 16 16 16 15 15 16 17 18 19 18 17 17 16 13 9 7 5 5 5 4 4 4 4 4 3 2
5 5 4 4 5 6 7 8 9 9 10 12 13 11 9 11 13 15 15 15 14 12 12 13 13 14 15 15 15 14 12 9 6 5 4 4 4 3 3 3 3 2 1 1
4 4 4 4 4 4 5 6 6 6 7 8 10 9 9 10 11 12 13 11 9 8 8 8 8 9 10 11 11 11 9 7 5 4 4 4 3 3 3 3 2 1 0 0
2 3 3 3 3 3 3 4 6 6 5 6 6 7 8 9 9 8 8 6 4 4 5 6 5 5 6 6 6 7 7 4 3 3 3 3 2 2 2 1 1 0 0 0
1 2 3 3 3 2 2 4 6 6 5 4 4 4 5 6 6 5 3 2 2 3 4 4 3 3 2 2 2 3 3 2 1 1 1 1 1 1 1 0 0 0 0 0
1 2 2 2 3 3 3 3 4 5 4 3 3 3 3 3 3 3 2 2 2 2 2 2 1 1 0 0 0 1 1 0 0 0 0 0 0 0 0 0 0 0 0 0
1 2 2 2 2 2 2 2 2 2 3 3 3 3 2 1 2 2 2 1 1 1 1 0 0 0 0 0 0 0 0 0 0 0 0 0 0 0 0 0 0 0 0 0
2 2 1 1 1 1 1 2 2 3 3 4 4 3 2 1 1 1 1 0 0 0 0 0 0 0 0 0 0 0 0 0 0 0 0 0 0 0 0 0 0 0 0 0
2 2 1 0 0 1 2 3 4 5 5 5 5 4 2 0 0 0 0 0 0 0 0 0 0 0 0 0 0 0 0 0 0 0 0 0 0 0 0 0 0 0 0 0
3 2 1 0 1 2 2 3 4 4 5 5 3 2 1 0 0 0 0 0 0 0 0 0 0 0 0 0 0 0 0 0 0 0 0 0 0 0 0 0 0 0 0 0
3 2 1 0 1 2 2 1 2 3 3 2 1 0 0 0 0 0 0 0 0 0 0 1 1 0 0 0 0 0 0 0 0 0 0 0 0 0 0 0 0 0 0 0
3 2 1 0 1 2 2 1 1 1 1 0 0 0 0 0 0 0 0 0 0 0 1 2 2 1 0 0 0 0 0 0 0 0 0 0 0 0 0 0 0 0 0 0